TimeCDT,TemperatureF,Dew PointF,Humidity,Sea Level PressureIn,VisibilityMPH,Wind Direction,Wind SpeedMPH,Gust SpeedMPH,PrecipitationIn,Events,Conditions,WindDirDegrees,DateUTC
12:54 AM,46.0,32.0,58,30.10,10.0,WSW,4.6,-,N/A,,Mostly Cloudy,240,2011-10-29 05:54:00
1:54 AM,43.0,33.1,68,30.10,10.0,WSW,4.6,-,N/A,,Mostly Cloudy,240,2011-10-29 06:54:00
2:54 AM,44.1,32.0,63,30.10,10.0,WSW,6.9,-,N/A,,Clear,250,2011-10-29 07:54:00
3:54 AM,43.0,32.0,65,30.08,10.0,WSW,6.9,-,N/A,,Clear,250,2011-10-29 08:54:00
4:54 AM,41.0,33.8,76,30.08,10.0,West,8.1,-,N/A,,Clear,270,2011-10-29 09:54:00
5:54 AM,39.9,32.0,73,30.10,10.0,West,8.1,-,N/A,,Clear,280,2011-10-29 10:54:00
6:54 AM,37.9,30.0,73,30.10,10.0,West,5.8,-,N/A,,Clear,280,2011-10-29 11:54:00
7:54 AM,37.0,30.0,76,30.11,10.0,WSW,4.6,-,N/A,,Clear,250,2011-10-29 12:54:00
8:54 AM,42.1,28.9,60,30.13,10.0,WSW,10.4,-,N/A,,Clear,250,2011-10-29 13:54:00
9:54 AM,46.4,28.4,50,30.13,10.0,West,5.8,-,N/A,,Clear,270,2011-10-29 14:54:00
10:54 AM,50.0,28.9,44,30.15,10.0,WNW,10.4,-,N/A,,Clear,290,2011-10-29 15:54:00
11:54 AM,53.1,28.0,38,30.15,10.0,NW,12.7,21.9,N/A,,Clear,320,2011-10-29 16:54:00
12:54 PM,55.0,26.1,33,30.14,10.0,WNW,17.3,24.2,N/A,,Clear,300,2011-10-29 17:54:00
1:54 PM,55.9,25.0,30,30.13,10.0,NNW,13.8,23.0,N/A,,Clear,330,2011-10-29 18:54:00
2:54 PM,57.0,25.0,29,30.11,10.0,NW,16.1,23.0,N/A,,Clear,310,2011-10-29 19:54:00
3:54 PM,57.0,25.0,29,30.11,10.0,WNW,13.8,20.7,N/A,,Clear,290,2011-10-29 20:54:00
4:54 PM,55.0,24.1,30,30.11,10.0,NW,11.5,-,N/A,,Clear,320,2011-10-29 21:54:00
5:54 PM,51.8,23.0,33,30.10,10.0,NNW,4.6,-,N/A,,Clear,330,2011-10-29 22:54:00
6:54 PM,46.4,26.6,46,30.12,10.0,Calm,Calm,-,N/A,,Clear,0,2011-10-29 23:54:00
7:54 PM,39.0,26.1,60,30.14,9.0,Calm,Calm,-,N/A,,Clear,0,2011-10-30 00:54:00
8:54 PM,37.9,25.0,60,30.15,10.0,Calm,Calm,-,N/A,,Clear,0,2011-10-30 01:54:00
9:54 PM,37.0,26.1,65,30.15,10.0,Calm,Calm,-,N/A,,Clear,0,2011-10-30 02:54:00
10:54 PM,35.1,25.0,67,30.14,10.0,SSE,4.6,-,N/A,,Clear,150,2011-10-30 03:54:00
11:54 PM,34.0,24.1,67,30.14,10.0,Calm,Calm,-,N/A,,Clear,0,2011-10-30 04:54:00